Tracking 19795 objects as of 19-Jul-2019
HD Live streaming from Space Station
objects crossing your sky now

SL-8 R/B

Track SL-8 R/B now!
10-day predictions


NORAD ID: 4370
Int'l Code: 1970-028B
Perigee: 689.4 km
Apogee: 711.2 km
Inclination: 74.0 °
Period: 98.6 minutes
Semi major axis: 7071 km
RCS: 4.6155 m2 (large)
Launch date: April 11, 1970
Source: Commonwealth of Independent States (former USSR) (CIS)
Launch site: PLESETSK MISSILE AND SPACE COMPLEX (PKMTR)

Note: This is a ROCKET BODY
aabbcc
Your satellite tracking list
Your tracking list is empty




NASA's NSSDC Master Catalog

Two Line Element Set (TLE):
1  4370U 70028B   19199.24489028  .00000055  00000-0  17622-4 0  9999
2  4370  74.0394  77.4815 0015380 166.0133 194.1462 14.59999242123043
Source of the keplerian elements: AFSPC